DMSP 5D-2 F13 DEB

Satellite information

Favourite Embed

Satellite Type and Status

DEBRISIN ORBIT

Key statistics

Satellite DMSP 5D-2 F13 DEB at a glance.

Uptime

11170

Days in orbit

Revolutions

≈ 14.5

Per day

Orbit

SSO

Sun Synchronous Orbit

Inclination

98.6

Latest

Satellite identification and parameters

Extended collection of information and parameters for DMSP 5D-2 F13 DEB.

Object identification

Identified? True

Debris? True

Object name: DMSP 5D-2 F13 DEB

International designator: 1995-015FC

Object number (NORAD): 40605

Object ID (CCSDS): 40605

Country: UNITED STATES OF AMERICA (US)

Current information (Y/N): Y

RCS size: SMALL

Orbital parameters

Period: 98.974 minutes

Inclination: 98.6381 deg

SMA: 7087.721 km

Apoapsis: 724.649 km

Periapsis: 694.524 km

RAAN: 347.5311 deg

Eccentricy: 0.00212517

Argument of periapsis: 240.8388 deg

Mean anomaly: 119.0682 deg

Mean motion: 14.54932345 rev/day

Mean motion (dot): 0.0002286 rev/day2

B* drag term: 0.0052942936 1/REarth

Two-line elements (TLE)

Creation date: Oct. 20, 2025, 6:08 p.m.

Reference frame: TEME

Reference center: EARTH

Epoch: Oct. 20, 2025, 9:04 a.m. UTC

TLE line 0: 0 DMSP 5D-2 F13 DEB

TLE line 1: 1 40605U 95015FC 25293.37824241 .00022860 00000-0 52943-2 0 9990

TLE line 2: 2 40605 98.6381 347.5311 0021252 240.8388 119.0682 14.54932345547598

Live tracking on map

Real-time ground track for satellite DMSP 5D-2 F13 DEB.

In-orbit conjunctions

A list of the most updated potential collisions computed for object DMSP 5D-2 F13 DEB.

Target Orbit TCA Probability of collision Miss distance Type
SL-8 DEB LEO 2025-01-18 21:36:29 0.0001400517 119.0 (m) DEBRIS
COSMOS 2251 DEB LEO 2024-11-14 16:39:57 0.0001263991 659.0 (m) DEBRIS
COSMOS 1110 LEO 2024-07-29 01:10:09 0.0001527135 825.0 (m) PAYLOAD

Associated space launch

Military meteorological satellite

DMSP 5D-2 F13 DEB was lifted into orbit during the mission ‘Atlas E | DMSP-5D2 F13’, on board a Atlas E space rocket.

The launch took place on March 24, 1995, 2:05 p.m. from Space Launch Complex 3W.

For more information about the launch, click the button.

Launch to space Atlas E | DMSP-5D2 F13
Atlas E | DMSP-5D2 F13

Agency: N/A

Status: Launch Successful

Launch date: March 24, 1995, 2:05 p.m. UTC

Rocket: Atlas E

Launch pad: Space Launch Complex 3W

Location: Vandenberg SFB, CA, USA

...

Latest news about this satellite

There are no fresh news available about this satellite. Check back as we update our databases every day.


Newsletter sign-up

Weekly statistics, charts and insights to help you stay on top of the space industry.